Weather in Sverdlovskiy

Russia / Orenburg Oblast     52°39′37″N   53°40′33″E
В апреле 2022 года жителям России запретили посещать сайт meteo.paraplan.net по решению Генеральной прокуратуры. Аудитория сайта уменьшилась в 10 раз. Владельцы сайта не видят смысла в поддержке погодного сервера в таких условиях. Сайт будет закрыт в октябре.
temp.,
°C
wind,
m/s
gust,
m/s
humid.,
%
clouds,
%
prec.,
mm/h
press.,
hPa
HPBL,
m
25 september, sun
sun2523:00+16w3758100 0.0 1011143
02:00+14wnw3460100 0.0 101196
05:00+13nnw2659100 0.0 1010215
08:00+14nw3660100 0.0 1007294
11:00+11wnw6991100 7.0 1006490
14:00+11wnw4690100 5.6 1005468
17:00+11w5789100 7.4 1005649
20:00+10sw5885100 0.3 1007522
26 september, mon
mon2623:00+10sw488698 0.4 1007327
02:00+10ssw3788100 0.1 1008367
05:00+10ssw3687100 0.6 1008266
08:00+9wsw5890100 1.0 1009533
11:00+10sw5775100 1.3 1010826
14:00+10w5874100 0.4 1011715
17:00+10sw5777100 1.1 1011928
20:00+9wsw5884100 0.6 1013661
27 september, tue
tue2723:00+8wsw488589 0.8 1014411
02:00+8wsw488668 0.2 1014312
05:00+7wsw488994 0.4 1015328
08:00+7wsw3790100 0.1 1016334
11:00+9w457598 0.1 1017581
14:00+10w4571100 0.1 1018616
17:00+12w34615 0.1 10171005
20:00+9wnw2274100 0.0 101912
28 september, wed
wed2823:00+8sw117799 0.0 101910
02:00+8s0080100 0.0 101910
05:00+7sse1180100 0.0 101910
08:00+8ssw0082100 0.3 101923
11:00+8e3486100 0.9 1020205
14:00+9ese3580100 0.2 1020344
17:00+9ese4782100 0.3 1019333
20:00+8e5887100 0.3 1019294
29 september, thu
thu2923:00+8ese51091100 2.5 1019371
02:00+8ese61091100 0.9 1019341
05:00+8ese71292100 1.7 1018395
08:00+7ese81590100 0.3 1017456
11:00+7ese8138782 0.3 1018478
14:00+8ese91181100 0.0 1019558
17:00+5e91384100 0.0 1020482
20:00+4ese91485100 0.3 1022489